Starlink 35036

operational
NORAD ID: 65406 Int'l Des: 2025-192 Owner: SPXS Country: US Constellation: starlink
LEOCIRCULAR

Starlink 35036について

説明を読み込み中...

リアルタイム位置

3D地球を読み込み中...

次回通過

高度履歴

Altitude vs Time

uPlot chart will show altitude changes over time

軌道要素

1 65406U 25192C 25341.62375006 .00084884 00000-0 21076-2 0 9994
2 65406 53.1603 306.0252 0001930 100.5811 259.5411 15.39632186 15207
Epoch: Dec 7, 2025 • Age: 14 hours

現在のステータス

高度 447.8 km
速度 7.64 km/s
衛星直下点 1.61°N, 152.27°E
打ち上げ日 Aug 31, 2025
運用期間 0.2 years
タイプ internet

技術仕様

分類 Payload
質量 575.00 kg
乾燥質量 530.00 kg
総質量 575.00 kg
長さ 0.30 m
直径 4.10 m
スパン 29.00 m
形状 Box + pan
製造者 SPXS
バスタイプ Starlink V2MO
フェーズステータス In Orbit
所有者/国 SPXS/US

大規模コンステレーション

Loading constellations...